When you browse on this site, cookies collect data to enhance your experience and personalize the content and advertising you see.
Visit our Privacy Policy to learn more. By continuing to use the site, you agree to this use of cookies and data.
  • In Österreich
  • Länderverzeichnis
  • Für 7 Tage
  • Wassertemperatur
  • Satellitenkarten
  • Wetterkarte
  • News
  • Widgets
  • user-avatar
    Anmelden

    Stündliche Wetter Gulevichi

    Heute, 22 Mai, Mittwoch

    Zeit Temperatur Niederschläge Wind Luftdruck Luftfeuchtigkeit
    00:00 +14°C° 0 mm 3 m/S 746 mmHg 96%
    01:00 +14°C° 0 mm 3 m/S 746 mmHg 96%
    02:00 +14°C° 0 mm 2 m/S 746 mmHg 96%
    03:00 +14°C° 0 mm 2 m/S 746 mmHg 96%
    04:00 +13°C° 0 mm 2 m/S 746 mmHg 96%
    05:00 +13°C° 0 mm 2 m/S 746 mmHg 96%
    06:00 +15°C° 0 mm 2 m/S 746 mmHg 90%
    07:00 +17°C° 0 mm 2 m/S 746 mmHg 84%
    08:00 +18°C° 0 mm 2 m/S 746 mmHg 78%
    09:00 +20°C° 0 mm 2 m/S 746 mmHg 69%
    10:00 +21°C° 0 mm 2 m/S 746 mmHg 61%
    11:00 +23°C° 0 mm 2 m/S 746 mmHg 52%
    12:00 +24°C° 0 mm 1 m/S 746 mmHg 49%
    13:00 +25°C° 0 mm 1 m/S 745 mmHg 46%
    14:00 +25°C° 0 mm 1 m/S 745 mmHg 43%
    15:00 +25°C° 0 mm 1 m/S 745 mmHg 44%
    16:00 +25°C° 0 mm 1 m/S 745 mmHg 46%
    17:00 +25°C° 0 mm 1 m/S 744 mmHg 47%
    18:00 +23°C° 0 mm 1 m/S 744 mmHg 53%
    19:00 +21°C° 0 mm 1 m/S 744 mmHg 59%
    20:00 +19°C° 0 mm 1 m/S 744 mmHg 65%
    21:00 +18°C° 0 mm 1 m/S 745 mmHg 68%
    22:00 +18°C° 0 mm 1 m/S 745 mmHg 72%
    23:00 +16°C° 0 mm 1 m/S 745 mmHg 75%

    Morgen, 23 Mai, Donnerstag

    Zeit Temperatur Niederschläge Wind Luftdruck Luftfeuchtigkeit
    00:00 +15°C° 0 mm 1 m/S 745 mmHg 77%
    01:00 +15°C° 0 mm 1 m/S 745 mmHg 79%
    02:00 +15°C° 0 mm 1 m/S 745 mmHg 80%
    03:00 +15°C° 0 mm 1 m/S 745 mmHg 82%
    04:00 +14°C° 0 mm 1 m/S 745 mmHg 83%
    05:00 +14°C° 0 mm 1 m/S 745 mmHg 84%
    06:00 +16°C° 0 mm 1 m/S 745 mmHg 78%
    07:00 +19°C° 0 mm 1 m/S 745 mmHg 73%
    08:00 +20°C° 0 mm 2 m/S 745 mmHg 67%
    09:00 +23°C° 0 mm 1 m/S 745 mmHg 61%
    10:00 +24°C° 0 mm 1 m/S 745 mmHg 55%
    11:00 +26°C° 0 mm 1 m/S 745 mmHg 49%
    12:00 +26°C° 0 mm 1 m/S 745 mmHg 47%
    13:00 +26°C° 0 mm 1 m/S 745 mmHg 45%
    14:00 +27°C° 0 mm 2 m/S 745 mmHg 43%
    15:00 +26°C° 0 mm 2 m/S 744 mmHg 45%
    16:00 +26°C° 0 mm 2 m/S 744 mmHg 48%
    17:00 +26°C° 0 mm 1 m/S 744 mmHg 50%
    18:00 +24°C° 0 mm 1 m/S 744 mmHg 55%
    19:00 +22°C° 0 mm 1 m/S 744 mmHg 60%
    20:00 +20°C° 0 mm 1 m/S 744 mmHg 65%
    21:00 +19°C° 0 mm 1 m/S 745 mmHg 67%
    22:00 +19°C° 0 mm 1 m/S 745 mmHg 69%
    23:00 +18°C° 0 mm 1 m/S 745 mmHg 72%

    übermorgen, 24 Mai, Freitag

    Zeit Temperatur Niederschläge Wind Luftdruck Luftfeuchtigkeit
    00:00 +16°C° 0 mm 1 m/S 745 mmHg 75%
    01:00 +16°C° 0 mm 1 m/S 745 mmHg 78%
    02:00 +16°C° 0 mm 1 m/S 745 mmHg 81%
    03:00 +16°C° 0 mm 1 m/S 745 mmHg 82%
    04:00 +16°C° 0 mm 1 m/S 745 mmHg 83%
    05:00 +15°C° 0 mm 0 m/S 745 mmHg 84%
    06:00 +17°C° 0 mm 0 m/S 745 mmHg 78%
    07:00 +21°C° 0 mm 1 m/S 745 mmHg 72%
    08:00 +23°C° 0 mm 1 m/S 746 mmHg 66%
    09:00 +24°C° 0 mm 1 m/S 745 mmHg 59%
    10:00 +26°C° 0 mm 1 m/S 745 mmHg 53%
    11:00 +27°C° 0 mm 1 m/S 745 mmHg 47%
    12:00 +27°C° 0 mm 1 m/S 745 mmHg 47%
    13:00 +27°C° 0 mm 2 m/S 745 mmHg 47%
    14:00 +27°C° 0 mm 2 m/S 745 mmHg 48%
    15:00 +26°C° 0.2 mm 2 m/S 744 mmHg 52%
    16:00 +26°C° 0.2 mm 2 m/S 744 mmHg 55%
    17:00 +25°C° 0.2 mm 2 m/S 744 mmHg 59%
    18:00 +23°C° 0.4 mm 2 m/S 744 mmHg 68%
    19:00 +20°C° 0.4 mm 2 m/S 744 mmHg 77%
    20:00 +18°C° 0.4 mm 2 m/S 744 mmHg 85%
    21:00 +18°C° 0.3 mm 2 m/S 744 mmHg 88%
    22:00 +17°C° 0.3 mm 2 m/S 744 mmHg 91%
    23:00 +16°C° 0.3 mm 2 m/S 744 mmHg 94%

    25 Mai, Samstag

    Zeit Temperatur Niederschläge Wind Luftdruck Luftfeuchtigkeit
    00:00 +16°C° 0.2 mm 2 m/S 744 mmHg 95%
    01:00 +16°C° 0.2 mm 2 m/S 744 mmHg 96%
    02:00 +15°C° 0.2 mm 2 m/S 744 mmHg 97%
    03:00 +15°C° 0 mm 2 m/S 744 mmHg 97%
    04:00 +15°C° 0 mm 2 m/S 744 mmHg 97%
    05:00 +15°C° 0 mm 2 m/S 744 mmHg 97%
    06:00 +14°C° 0.1 mm 3 m/S 744 mmHg 95%
    07:00 +16°C° 0.1 mm 3 m/S 744 mmHg 93%
    08:00 +15°C° 0.1 mm 4 m/S 744 mmHg 91%
    09:00 +17°C° 0 mm 4 m/S 744 mmHg 87%
    10:00 +16°C° 0 mm 5 m/S 744 mmHg 83%
    11:00 +17°C° 0 mm 5 m/S 744 mmHg 80%
    12:00 +19°C° 0 mm 5 m/S 744 mmHg 70%
    13:00 +21°C° 0 mm 5 m/S 744 mmHg 61%
    14:00 +22°C° 0 mm 5 m/S 744 mmHg 51%
    15:00 +22°C° 0 mm 5 m/S 744 mmHg 50%
    16:00 +22°C° 0 mm 4 m/S 743 mmHg 49%
    17:00 +21°C° 0 mm 4 m/S 743 mmHg 48%
    18:00 +20°C° 0 mm 3 m/S 743 mmHg 54%
    19:00 +18°C° 0 mm 3 m/S 744 mmHg 61%
    20:00 +16°C° 0 mm 2 m/S 744 mmHg 67%
    21:00 +15°C° 0 mm 2 m/S 744 mmHg 74%
    22:00 +14°C° 0 mm 3 m/S 744 mmHg 81%
    23:00 +13°C° 0 mm 3 m/S 744 mmHg 87%

    26 Mai, Sonntag

    Zeit Temperatur Niederschläge Wind Luftdruck Luftfeuchtigkeit
    00:00 +12°C° 0 mm 3 m/S 744 mmHg 90%
    01:00 +12°C° 0 mm 3 m/S 744 mmHg 92%
    02:00 +12°C° 0 mm 3 m/S 744 mmHg 95%
    03:00 +11°C° 0 mm 3 m/S 745 mmHg 95%
    04:00 +11°C° 0 mm 3 m/S 745 mmHg 95%
    05:00 +11°C° 0 mm 3 m/S 745 mmHg 96%
    06:00 +11°C° 0 mm 3 m/S 745 mmHg 91%
    07:00 +12°C° 0 mm 3 m/S 745 mmHg 86%
    08:00 +13°C° 0 mm 3 m/S 745 mmHg 80%
    09:00 +14°C° 0.1 mm 3 m/S 745 mmHg 74%
    10:00 +15°C° 0.1 mm 4 m/S 745 mmHg 68%
    11:00 +17°C° 0.1 mm 4 m/S 745 mmHg 61%
    12:00 +17°C° 0.1 mm 4 m/S 745 mmHg 64%
    13:00 +15°C° 0.1 mm 4 m/S 745 mmHg 67%
    14:00 +15°C° 0.1 mm 4 m/S 744 mmHg 70%
    15:00 +17°C° 0 mm 4 m/S 744 mmHg 67%
    16:00 +17°C° 0 mm 4 m/S 744 mmHg 64%
    17:00 +17°C° 0 mm 5 m/S 744 mmHg 62%
    18:00 +17°C° 0 mm 4 m/S 744 mmHg 66%
    19:00 +14°C° 0 mm 4 m/S 744 mmHg 70%
    20:00 +13°C° 0 mm 3 m/S 744 mmHg 74%
    21:00 +13°C° 0 mm 3 m/S 744 mmHg 76%
    22:00 +12°C° 0 mm 3 m/S 744 mmHg 78%
    23:00 +12°C° 0 mm 3 m/S 744 mmHg 80%

    27 Mai, Montag

    Zeit Temperatur Niederschläge Wind Luftdruck Luftfeuchtigkeit
    00:00 +11°C° 0 mm 3 m/S 744 mmHg 80%
    01:00 +11°C° 0 mm 4 m/S 744 mmHg 81%
    02:00 +11°C° 0 mm 4 m/S 744 mmHg 82%
    03:00 +11°C° 0.1 mm 4 m/S 744 mmHg 83%
    04:00 +10°C° 0.1 mm 4 m/S 745 mmHg 84%
    05:00 +9°C° 0.1 mm 5 m/S 745 mmHg 85%
    06:00 +10°C° 0.1 mm 5 m/S 745 mmHg 79%
    07:00 +10°C° 0.1 mm 6 m/S 745 mmHg 73%
    08:00 +11°C° 0.1 mm 7 m/S 746 mmHg 66%
    09:00 +13°C° 0 mm 6 m/S 746 mmHg 61%
    10:00 +14°C° 0 mm 6 m/S 746 mmHg 56%
    11:00 +15°C° 0 mm 6 m/S 746 mmHg 51%
    12:00 +16°C° 0 mm 6 m/S 746 mmHg 50%
    13:00 +17°C° 0 mm 6 m/S 746 mmHg 49%
    14:00 +19°C° 0 mm 6 m/S 746 mmHg 47%
    15:00 +19°C° 0 mm 6 m/S 747 mmHg 49%
    16:00 +19°C° 0 mm 5 m/S 747 mmHg 51%
    17:00 +19°C° 0 mm 5 m/S 747 mmHg 53%
    18:00 +17°C° 0 mm 4 m/S 747 mmHg 58%
    19:00 +16°C° 0 mm 3 m/S 747 mmHg 64%
    20:00 +14°C° 0 mm 1 m/S 747 mmHg 70%
    21:00 +14°C° 0 mm 2 m/S 747 mmHg 70%
    22:00 +13°C° 0 mm 2 m/S 748 mmHg 71%
    23:00 +13°C° 0 mm 2 m/S 748 mmHg 72%
    Mehr zeigen